Regional Weather Roundup
Issued by NWS

Home | Current Version | Previous Version | Graphics & Text | Print | Product List | Glossary On
Versions: 1 2 3 4 5 6 7 8 9 10 11 12 13 14 15 16 17 18 19 20 21 22 23 24 25 26 27 28 29 30 31 32 33 34 35 36 37 38 39 40 41 42 43 44 45 46 47 48 49 50
000
ASUS43 KLOT 312112
RWRIL

ILLINOIS REGIONAL WEATHER ROUNDUP
NATIONAL WEATHER SERVICE CHICAGO/ROMEOVILLE IL
400 PM CDT MON AUG 31 2015

NOTE: "FAIR" INDICATES FEW OR NO CLOUDS BELOW 12,000 FEET WITH NO
SIGNIFICANT WEATHER AND/OR OBSTRUCTIONS TO VISIBILITY.

* THESE STATIONS ARE NOT UNDER NWS QUALITY CONTROL. THEY ALSO MAY NOT
  REPORT WEATHER SUCH AS PRECIPITATION OR FOG.

ILZ001-002-007-009-015-016-024-312200-
NORTHWEST ILLINOIS

CITY           SKY/WX    TMP DP  RH WIND       PRES   REMARKS
MOLINE         FAIR      87  71  58 S8        29.98F HX  93
STERLING*        N/A     88  63  42 CALM      29.99  HX  88
SAVANNA*       FAIR      87  68  53 S7        29.99F HX  90
$$

ILZ003-004-008-010-011-017-018-312200-
NORTH CENTRAL ILLINOIS

CITY           SKY/WX    TMP DP  RH WIND       PRES   REMARKS
ROCKFORD       FAIR      84  68  58 SW8       30.03F HX  87
FREEPORT*      FAIR      82  69  62 S7        30.03F HX  85
ROCHELLE*      FAIR      83  70  63 S5        30.03F HX  88
DE KALB*       FAIR      83  70  65 S8        30.04F HX  87
PERU*          FAIR      86  64  47 S7        30.02F HX  88
$$

ILZ005-006-012>014-019>023-312200-
NORTHEAST ILLINOIS

CITY           SKY/WX    TMP DP  RH WIND       PRES   REMARKS
CHICAGO-OHARE  FAIR      85  67  54 SW6       30.01F HX  87
CHICAGO-MIDWAY FAIR      86  68  54 SW6       30.01F HX  89
AURORA         FAIR      85  70  60 S7        30.03F HX  89
LANSING*       FAIR      85  67  54 SW7       30.03F HX  88
JOLIET*        PTSUNNY   87  70  55 S5        30.02F HX  92
WAUKEGAN       FAIR      75  66  73 SE7       30.03F
DUPAGE AIRPORT PTSUNNY   84  70  62 S7        30.02F HX  88
KANKAKEE*      FAIR      88  72  58 S6        30.03F HX  94
WHEELING       FAIR      82  68  62 E6        30.03F HX  85
MORRIS*        PTSUNNY   85  71  64 S7        30.01F HX  90
ROMEOVILLE*    PTSUNNY   85  67  55 S5        30.02F HX  88
NORTHERLY ISL    N/A     75  68  78 NE3         N/A
$$

LMZ740>746-312200-
SOUTHERN LAKE MICHIGAN

STATION/POSITION SKY/WX   TEMP    WIND        PRES    VSBY  WAVE
                          AIR SEA DIR/SP/G                  HT/PER
                          (F)     (DEG/KT/KT) (MB)    (MI)  (FT/S)
SOUTHERN BUOY              70 71  170/  6/  6 1017.0F
WILMETTE HARBOR            69 65  280/  4/  4   N/A           0
HARRISON CRIB              72     100/  8/  9   N/A
BURNHAM HARBOR             75      60/  3/  4   N/A
CALUMET HARBOR             74      50/  6/  8   N/A
BURNS HARBOR               76      70/  8/  9 1017.9F
MICHIGAN CITY              72      30/  7/  8   N/A
MICHIGAN CITY 6N           74 73   70/  6/  6   N/A           0
ST. JOSEPH                 74 76   50/  4/  4   N/A           0
$$

ILZ025>027-034>036-040-047-049-050-058-095>099-312200-
WEST-CENTRAL ILLINOIS

CITY           SKY/WX    TMP DP  RH WIND       PRES   REMARKS
QUINCY         FAIR      90  69  50 S9        29.98F HX  94
GALESBURG*     FAIR      86  71  62 S8        30.00F HX  91
MACOMB*        FAIR      89  69  51 S6        30.01F HX  92
JACKSONVILLE*  FAIR      90  71  54 S6G16     30.00F HX  96
PITTSFIELD*    FAIR      90  71  52 S8        30.01F HX  96
$$

ILZ028>032-037-038-041>044-048-051>054-059>061-312200-
CENTRAL ILLINOIS

CITY           SKY/WX    TMP DP  RH WIND       PRES   REMARKS
PONTIAC        FAIR      88  70  56 S6        30.03F HX  93
BLOOMINGTON    FAIR      87  73  62 S9        30.04F HX  94
DECATUR        FAIR      87  70  56 S9        30.03F HX  92
PEORIA         FAIR      90  69  50 VRB5      30.00F HX  94
LACON*         FAIR      87  71  57 S7        30.00S HX  92
LINCOLN*       FAIR      90  69  50 S9        30.00F HX  95
SPRINGFIELD    PTSUNNY   88  71  57 S6        30.01F HX  94
TAYLORVILLE    FAIR      86  70  58 S9        30.03F HX  90
$$

ILZ033-039-045-046-055>057-062-063-312200-
EAST-CENTRAL ILLINOIS

CITY           SKY/WX    TMP DP  RH WIND       PRES   REMARKS
CHAMPAIGN      PTSUNNY   87  70  56 VRB7      30.04F HX  92
MATTOON        FAIR      84  69  60 S8G16     30.05F HX  88
PARIS*         FAIR      86  70  59 S8        30.06F HX  91
$$

ILZ079-100>102-312200-
SOUTHWEST ILLINOIS

CITY           SKY/WX    TMP DP  RH WIND       PRES   REMARKS
ALTON          PTSUNNY   86  72  62 SE6       30.02F HX  92
BELLEVILLE     FAIR      88  75  65 VRB2      30.00F HX  97
CAHOKIA*       FAIR      90  73  57 SE8       30.01F THUNDER HX  98
SPARTA*        FAIR      86  73  64 S7        30.04F HX  93
$$

ILZ064>066-069>071-074>076-080>082-084>086-088>090-092>094-312200-
SOUTH-CENTRAL ILLINOIS

CITY           SKY/WX    TMP DP  RH WIND       PRES   REMARKS
CARBONDALE     PTSUNNY   85  71  63 SE8       30.05F HX  90
CAIRO*         FAIR      86  72  62 S5        30.05F HX  92
EFFINGHAM*     FAIR      84  67  56 SE5       30.07F HX  87
MARION         MOSUNNY   88  70  55 S7        30.06F HX  92
MT. VERNON     FAIR      88  70  55 S8        30.05F HX  92
SALEM*         PTSUNNY   88  71  56 SE8       30.05F HX  94
METROPOLIS*    FAIR      87  71  59 CALM      30.07F HX  92
$$

ILZ067-068-072-073-078-083-087-091-312200-
SOUTHEAST ILLINOIS

CITY           SKY/WX    TMP DP  RH WIND       PRES   REMARKS
LAWRENCEVILLE  FAIR      87  67  51 S8        30.06F HX  90
FLORA*         FAIR      86  67  54 S8        30.05F HX  88
FAIRFIELD*     FAIR      87  67  52 S8        30.04F HX  90
HARRISBURG*    FAIR      87  69  54 S8        30.05F HX  91
ROBINSON*      FAIR      88  68  52 SW7       30.06F HX  91
CARMI*         FAIR      85  70  60 SE7       30.05F HX  90
$$

ABBREVIATIONS USED IN REMARKS
   TC - TEMPERATURE IN CELSIUS
  WCI - WIND CHILL INDEX
   HX - HEAT INDEX
  VSB - VISIBILITY
$$




USA.gov is the U.S. government's official web portal to all federal, state and local government web resources and services.